Satellite-Ground Cal/Val Site Overpasses Predictions

Prediction of Satellite NPP Overpassing Cal/Val Site: Antarctic Dome C

Ground Cal/Val Site Location: Latitude: -75.10, Longitude: 123.35; Satellite-Ground Site NADIR distance within 100 km.

Table of predicted overpasses for the next 14.0 days since TLE Epoch: 5/11/2018
Interval Starting Time Ending Time Minimum Distance Time Minimum Distance (km)
1 05/13/2018 15:01:07 05/13/2018 15:01:30 05/13/2018 15:01:19 58.64
2 05/14/2018 14:42:17 05/14/2018 14:42:42 05/14/2018 14:42:30 50.57
3 05/15/2018 07:43:57 05/15/2018 07:44:18 05/15/2018 07:44:08 69.89
4 05/16/2018 07:25:05 05/16/2018 07:25:32 05/16/2018 07:25:19 38.04
5 05/18/2018 15:07:32 05/18/2018 15:07:40 05/18/2018 15:07:36 96.28
6 05/19/2018 14:48:31 05/19/2018 14:49:00 05/19/2018 14:48:46 15.10
7 05/21/2018 07:31:21 05/21/2018 07:31:51 05/21/2018 07:31:36 1.60
8 05/24/2018 14:54:48 05/24/2018 14:55:17 05/24/2018 14:55:03 21.52


NCC Satellite Cal/Val Overpasses Prediction Service
